Location: Charleville
(26.4021°S, 146.2454°E)
Time: 15:36:30
(UTC+10:00)

Tiangong - Visible Passes

Search period start: 04 March 2024 00:00
Search period end: 14 March 2024 00:00
Orbit: 375 x 384 km, 41.5° (Epoch: 03 March)

Date Brightness Start Highest point End Pass type
(mag) Time Alt. Az. Time Alt. Az. Time Alt. Az.
04 Mar 0.9 04:04:33 17° ESE 04:04:33 17° ESE 04:05:28 10° ESE visible
04 Mar 0.1 05:37:12 10° WSW 05:39:15 16° SSW 05:41:17 10° SSE visible
05 Mar -0.3 04:38:18 24° S 04:38:18 24° S 04:40:23 10° SSE visible
06 Mar 0.5 05:12:24 10° SSW 05:13:12 11° SSW 05:14:00 10° S visible
07 Mar 1.1 04:13:18 11° SSE 04:13:18 11° SSE 04:13:29 10° SSE visible
